{"data":{"norad_id":63406,"epoch":"2026-05-25T01:08:23.593056Z","epoch_age_seconds":81005,"freshness":"FRESH","line1":"1 63406U 25065H   26145.04749529  .00023472  00000+0  85954-3 0  9996","line2":"2 63406  43.0008  31.8976 0001154 275.2634  84.8086 15.27587812 64561","mean_motion":15.27587812,"eccentricity":0.0001154,"inclination_deg":43.0008,"raan_deg":31.8976,"arg_perigee_deg":275.2634,"mean_anomaly_deg":84.8086,"bstar":0.00085954,"rev_number":6456,"period_min":94.266266638687,"perigee_km":482.23392602492,"apogee_km":483.81748237705,"semimajor_km":6861.162704201,"source":"CELESTRAK","updated_at":"2026-05-25T13:38:19.969552Z"}}